Tracking 19795 objects as of 18-Jul-2019
HD Live streaming from Space Station
objects crossing your sky now

COSMOS 1745

Track COSMOS 1745 now!
10-day predictions
COSMOS 1745 is classified as:


NORAD ID: 16727
Int'l Code: 1986-037A
Perigee: 967.8 km
Apogee: 1,015.5 km
Inclination: 83.0 °
Period: 104.8 minutes
Semi major axis: 7362 km
RCS: 2.3429 m2 (large)
Launch date: May 23, 1986
Source: Commonwealth of Independent States (former USSR) (CIS)
Launch site: PLESETSK MISSILE AND SPACE COMPLEX (PKMTR)
aabbcc
Your satellite tracking list
Your tracking list is empty




NASA's NSSDC Master Catalog

Two Line Element Set (TLE):
1 16727U 86037A   19198.87947920 +.00000007 +00000-0 -93037-5 0  9996
2 16727 082.9581 170.4944 0032411 046.9983 331.4859 13.74196455662177
Source of the keplerian elements: AFSPC